Time,TemperatureF,DewpointF,PressureIn,WindDirection,WindDirectionDegrees,WindSpeedMPH,WindSpeedGustMPH,Humidity,HourlyPrecipIn,Conditions,Clouds,dailyrainin,SoftwareType,DateUTC
2013-05-28 00:01:00,59.0,14.2,29.94,West,270,0.0,7.0,17,0.00,,,0.00,Weather View 32 v70,2013-05-28 06:01:00,
2013-05-28 00:06:00,59.0,14.2,29.94,West,270,0.0,7.0,17,0.00,,,0.00,Weather View 32 v70,2013-05-28 06:06:00,
2013-05-28 00:11:00,59.0,14.2,29.94,West,270,0.0,7.0,17,0.00,,,0.00,Weather View 32 v70,2013-05-28 06:11:00,
2013-05-28 00:16:00,58.0,15.9,29.94,West,270,0.0,7.0,19,0.00,,,0.00,Weather View 32 v70,2013-05-28 06:16:00,
2013-05-28 00:21:00,58.0,15.9,29.93,West,270,0.0,7.0,19,0.00,,,0.00,Weather View 32 v70,2013-05-28 06:21:00,
2013-05-28 00:26:00,58.0,14.7,29.93,West,270,0.0,7.0,18,0.00,,,0.00,Weather View 32 v70,2013-05-28 06:26:00,
2013-05-28 00:31:00,58.0,14.7,29.93,West,270,0.0,7.0,18,0.00,,,0.00,Weather View 32 v70,2013-05-28 06:31:00,
2013-05-28 00:36:00,57.0,15.1,29.93,West,270,0.0,7.0,19,0.00,,,0.00,Weather View 32 v70,2013-05-28 06:36:00,
2013-05-28 00:41:00,57.0,16.2,29.94,West,270,1.0,7.0,20,0.00,,,0.00,Weather View 32 v70,2013-05-28 06:41:00,
2013-05-28 00:46:00,57.0,16.2,29.94,West,270,0.0,6.0,20,0.00,,,0.00,Weather View 32 v70,2013-05-28 06:46:00,
2013-05-28 00:51:00,56.0,16.5,29.94,West,270,0.0,5.0,21,0.00,,,0.00,Weather View 32 v70,2013-05-28 06:51:00,
2013-05-28 00:56:00,56.0,16.5,29.94,West,270,0.0,5.0,21,0.00,,,0.00,Weather View 32 v70,2013-05-28 06:56:00,
2013-05-28 01:01:00,56.0,16.5,29.94,West,270,0.0,3.0,21,0.00,,,0.00,Weather View 32 v70,2013-05-28 07:01:00,
2013-05-28 01:06:00,55.0,15.7,29.94,West,270,0.0,3.0,21,0.00,,,0.00,Weather View 32 v70,2013-05-28 07:06:00,
2013-05-28 01:11:00,55.0,15.7,29.94,West,270,0.0,3.0,21,0.00,,,0.00,Weather View 32 v70,2013-05-28 07:11:00,
2013-05-28 01:16:00,55.0,16.8,29.94,West,270,0.0,3.0,22,0.00,,,0.00,Weather View 32 v70,2013-05-28 07:16:00,
2013-05-28 01:21:00,55.0,13.4,29.94,NW,315,4.0,4.0,19,0.00,,,0.00,Weather View 32 v70,2013-05-28 07:21:00,
2013-05-28 01:26:00,56.0,14.2,29.94,NNW,337,3.0,5.0,19,0.00,,,0.00,Weather View 32 v70,2013-05-28 07:26:00,
2013-05-28 01:31:00,55.0,15.7,29.94,North,360,0.0,5.0,21,0.00,,,0.00,Weather View 32 v70,2013-05-28 07:31:00,
2013-05-28 01:36:00,55.0,15.7,29.94,North,360,0.0,5.0,21,0.00,,,0.00,Weather View 32 v70,2013-05-28 07:36:00,
2013-05-28 01:41:00,54.0,17.0,29.94,North,360,0.0,5.0,23,0.00,,,0.00,Weather View 32 v70,2013-05-28 07:41:00,
2013-05-28 01:46:00,54.0,18.0,29.94,North,360,0.0,5.0,24,0.00,,,0.00,Weather View 32 v70,2013-05-28 07:46:00,
2013-05-28 01:51:00,53.0,19.0,29.93,North,360,0.0,5.0,26,0.00,,,0.00,Weather View 32 v70,2013-05-28 07:51:00,
2013-05-28 01:56:00,53.0,19.0,29.93,North,360,0.0,5.0,26,0.00,,,0.00,Weather View 32 v70,2013-05-28 07:56:00,
2013-05-28 02:01:00,52.0,20.7,29.94,North,360,2.0,5.0,29,0.00,,,0.00,Weather View 32 v70,2013-05-28 08:01:00,
2013-05-28 02:06:00,52.0,18.1,29.94,North,360,2.0,5.0,26,0.00,,,0.00,Weather View 32 v70,2013-05-28 08:06:00,
2013-05-28 02:11:00,52.0,18.1,29.93,NNE,22,3.0,5.0,26,0.00,,,0.00,Weather View 32 v70,2013-05-28 08:11:00,
2013-05-28 02:16:00,51.0,17.3,29.93,NNE,22,4.0,5.0,26,0.00,,,0.00,Weather View 32 v70,2013-05-28 08:16:00,
2013-05-28 02:21:00,51.0,17.3,29.93,NNE,22,3.0,5.0,26,0.00,,,0.00,Weather View 32 v70,2013-05-28 08:21:00,
2013-05-28 02:26:00,51.0,16.4,29.93,NNE,22,4.0,5.0,25,0.00,,,0.00,Weather View 32 v70,2013-05-28 08:26:00,
2013-05-28 02:31:00,51.0,15.4,29.93,ENE,67,4.0,7.0,24,0.00,,,0.00,Weather View 32 v70,2013-05-28 08:31:00,
2013-05-28 02:35:00,51.0,15.4,29.93,East,90,5.0,7.0,24,0.00,,,0.00,Weather View 32 v70,2013-05-28 08:35:00,
2013-05-28 02:40:00,51.0,16.4,29.93,ENE,67,6.0,7.0,25,0.00,,,0.00,Weather View 32 v70,2013-05-28 08:40:00,
2013-05-28 02:45:00,51.0,16.4,29.93,ENE,67,6.0,7.0,25,0.00,,,0.00,Weather View 32 v70,2013-05-28 08:45:00,
2013-05-28 02:50:00,51.0,15.4,29.94,NE,45,5.0,9.0,24,0.00,,,0.00,Weather View 32 v70,2013-05-28 08:50:00,
2013-05-28 02:55:00,51.0,14.4,29.94,NE,45,3.0,9.0,23,0.00,,,0.00,Weather View 32 v70,2013-05-28 08:55:00,
2013-05-28 03:00:00,51.0,14.4,29.93,East,90,5.0,9.0,23,0.00,,,0.00,Weather View 32 v70,2013-05-28 09:00:00,
2013-05-28 03:05:00,51.0,15.4,29.93,ENE,67,8.0,11.0,24,0.00,,,0.00,Weather View 32 v70,2013-05-28 09:05:00,
2013-05-28 03:10:00,51.0,15.4,29.93,ENE,67,8.0,12.0,24,0.00,,,0.00,Weather View 32 v70,2013-05-28 09:10:00,
2013-05-28 03:15:00,51.0,16.4,29.93,East,90,10.0,12.0,25,0.00,,,0.00,Weather View 32 v70,2013-05-28 09:15:00,
2013-05-28 03:20:00,51.0,17.3,29.93,ENE,67,8.0,12.0,26,0.00,,,0.00,Weather View 32 v70,2013-05-28 09:20:00,
2013-05-28 03:25:00,50.0,15.5,29.93,ENE,67,8.0,12.0,25,0.00,,,0.00,Weather View 32 v70,2013-05-28 09:25:00,
2013-05-28 03:30:00,50.0,15.5,29.93,NE,45,7.0,12.0,25,0.00,,,0.00,Weather View 32 v70,2013-05-28 09:30:00,
2013-05-28 03:35:00,50.0,15.5,29.93,East,90,10.0,12.0,25,0.00,,,0.00,Weather View 32 v70,2013-05-28 09:35:00,
2013-05-28 03:40:00,50.0,15.5,29.93,East,90,10.0,13.0,25,0.00,,,0.00,Weather View 32 v70,2013-05-28 09:40:00,
2013-05-28 03:45:00,50.0,16.4,29.93,ENE,67,10.0,13.0,26,0.00,,,0.00,Weather View 32 v70,2013-05-28 09:45:00,
2013-05-28 03:50:00,50.0,17.3,29.93,NE,45,6.0,13.0,27,0.00,,,0.00,Weather View 32 v70,2013-05-28 09:50:00,
2013-05-28 03:55:00,50.0,17.3,29.93,ENE,67,7.0,13.0,27,0.00,,,0.00,Weather View 32 v70,2013-05-28 09:55:00,
2013-05-28 04:00:00,49.0,16.4,29.93,East,90,7.0,13.0,27,0.00,,,0.00,Weather View 32 v70,2013-05-28 10:00:00,
2013-05-28 04:05:00,49.0,16.4,29.93,ENE,67,7.0,13.0,27,0.00,,,0.00,Weather View 32 v70,2013-05-28 10:05:00,
2013-05-28 04:10:00,49.0,16.4,29.93,ENE,67,8.0,13.0,27,0.00,,,0.00,Weather View 32 v70,2013-05-28 10:10:00,
2013-05-28 04:15:00,49.0,16.4,29.93,ENE,67,7.0,13.0,27,0.00,,,0.00,Weather View 32 v70,2013-05-28 10:15:00,
2013-05-28 04:20:00,49.0,16.4,29.93,ENE,67,10.0,14.0,27,0.00,,,0.00,Weather View 32 v70,2013-05-28 10:20:00,
2013-05-28 04:25:00,49.0,16.4,29.93,ENE,67,7.0,14.0,27,0.00,,,0.00,Weather View 32 v70,2013-05-28 10:25:00,
2013-05-28 04:30:00,49.0,16.4,29.94,East,90,9.0,14.0,27,0.00,,,0.00,Weather View 32 v70,2013-05-28 10:30:00,
2013-05-28 04:35:00,49.0,17.3,29.94,ENE,67,8.0,14.0,28,0.00,,,0.00,Weather View 32 v70,2013-05-28 10:35:00,
2013-05-28 04:40:00,49.0,17.3,29.93,East,90,5.0,14.0,28,0.00,,,0.00,Weather View 32 v70,2013-05-28 10:40:00,
2013-05-28 04:45:00,48.0,17.2,29.93,ENE,67,7.0,14.0,29,0.00,,,0.00,Weather View 32 v70,2013-05-28 10:45:00,
2013-05-28 04:50:00,48.0,17.2,29.93,ENE,67,7.0,14.0,29,0.00,,,0.00,Weather View 32 v70,2013-05-28 10:50:00,
2013-05-28 04:55:00,48.0,18.0,29.93,East,90,7.0,14.0,30,0.00,,,0.00,Weather View 32 v70,2013-05-28 10:55:00,
2013-05-28 05:00:00,48.0,18.0,29.93,East,90,8.0,14.0,30,0.00,,,0.00,Weather View 32 v70,2013-05-28 11:00:00,
2013-05-28 05:05:00,48.0,18.8,29.93,ENE,67,9.0,14.0,31,0.00,,,0.00,Weather View 32 v70,2013-05-28 11:05:00,
2013-05-28 05:10:00,47.0,17.9,29.93,East,90,7.0,14.0,31,0.00,,,0.00,Weather View 32 v70,2013-05-28 11:10:00,
2013-05-28 05:15:00,47.0,17.9,29.93,ENE,67,7.0,14.0,31,0.00,,,0.00,Weather View 32 v70,2013-05-28 11:15:00,
2013-05-28 05:20:00,47.0,17.9,29.93,East,90,6.0,14.0,31,0.00,,,0.00,Weather View 32 v70,2013-05-28 11:20:00,
2013-05-28 05:25:00,47.0,18.6,29.93,East,90,7.0,14.0,32,0.00,,,0.00,Weather View 32 v70,2013-05-28 11:25:00,
2013-05-28 05:30:00,47.0,19.3,29.93,East,90,8.0,13.0,33,0.00,,,0.00,Weather View 32 v70,2013-05-28 11:30:00,
2013-05-28 05:35:00,46.0,19.2,29.93,East,90,8.0,13.0,34,0.00,,,0.00,Weather View 32 v70,2013-05-28 11:35:00,
2013-05-28 05:40:00,46.0,19.2,29.93,East,90,7.0,13.0,34,0.00,,,0.00,Weather View 32 v70,2013-05-28 11:40:00,
2013-05-28 05:45:00,46.0,19.8,29.93,East,90,6.0,13.0,35,0.00,,,0.00,Weather View 32 v70,2013-05-28 11:45:00,
2013-05-28 05:50:00,46.0,19.8,29.94,East,90,7.0,13.0,35,0.00,,,0.00,Weather View 32 v70,2013-05-28 11:50:00,
2013-05-28 05:55:00,46.0,19.8,29.94,East,90,6.0,13.0,35,0.00,,,0.00,Weather View 32 v70,2013-05-28 11:55:00,
2013-05-28 06:00:00,45.0,19.0,29.94,SE,135,7.0,13.0,35,0.00,,,0.00,Weather View 32 v70,2013-05-28 12:00:00,
2013-05-28 06:05:00,45.0,19.0,29.94,East,90,6.0,13.0,35,0.00,,,0.00,Weather View 32 v70,2013-05-28 12:05:00,
2013-05-28 06:10:00,45.0,20.3,29.94,East,90,6.0,13.0,37,0.00,,,0.00,Weather View 32 v70,2013-05-28 12:10:00,
2013-05-28 06:15:00,45.0,20.3,29.94,East,90,5.0,12.0,37,0.00,,,0.00,Weather View 32 v70,2013-05-28 12:15:00,
2013-05-28 06:20:00,45.0,19.6,29.94,East,90,5.0,12.0,36,0.00,,,0.00,Weather View 32 v70,2013-05-28 12:20:00,
2013-05-28 06:25:00,45.0,19.6,29.94,East,90,4.0,12.0,36,0.00,,,0.00,Weather View 32 v70,2013-05-28 12:25:00,
2013-05-28 06:30:00,45.0,19.0,29.94,ENE,67,4.0,12.0,35,0.00,,,0.00,Weather View 32 v70,2013-05-28 12:30:00,
2013-05-28 06:35:00,46.0,18.5,29.94,NE,45,4.0,11.0,33,0.00,,,0.00,Weather View 32 v70,2013-05-28 12:35:00,
2013-05-28 06:40:00,47.0,18.6,29.95,NE,45,4.0,11.0,32,0.00,,,0.00,Weather View 32 v70,2013-05-28 12:40:00,
2013-05-28 06:45:00,47.0,18.6,29.95,NE,45,5.0,10.0,32,0.00,,,0.00,Weather View 32 v70,2013-05-28 12:45:00,
2013-05-28 06:50:00,48.0,18.8,29.94,ENE,67,5.0,10.0,31,0.00,,,0.00,Weather View 32 v70,2013-05-28 12:50:00,
2013-05-28 06:55:00,48.0,18.8,29.94,NE,45,6.0,10.0,31,0.00,,,0.00,Weather View 32 v70,2013-05-28 12:55:00,
2013-05-28 07:00:00,49.0,19.6,29.95,NE,45,5.0,9.0,31,0.00,,,0.00,Weather View 32 v70,2013-05-28 13:00:00,
2013-05-28 07:05:00,49.0,18.9,29.95,ENE,67,5.0,9.0,30,0.00,,,0.00,Weather View 32 v70,2013-05-28 13:05:00,
2013-05-28 07:10:00,49.0,18.1,29.95,East,90,8.0,9.0,29,0.00,,,0.00,Weather View 32 v70,2013-05-28 13:10:00,
2013-05-28 07:15:00,50.0,18.1,29.95,East,90,6.0,10.0,28,0.00,,,0.00,Weather View 32 v70,2013-05-28 13:15:00,
2013-05-28 07:20:00,51.0,19.8,29.94,ENE,67,9.0,11.0,29,0.00,,,0.00,Weather View 32 v70,2013-05-28 13:20:00,
2013-05-28 07:25:00,51.0,19.8,29.94,East,90,9.0,13.0,29,0.00,,,0.00,Weather View 32 v70,2013-05-28 13:25:00,
2013-05-28 07:30:00,52.0,19.8,29.94,ENE,67,6.0,13.0,28,0.00,,,0.00,Weather View 32 v70,2013-05-28 13:30:00,
2013-05-28 07:35:00,52.0,19.8,29.94,East,90,6.0,13.0,28,0.00,,,0.00,Weather View 32 v70,2013-05-28 13:35:00,
2013-05-28 07:40:00,53.0,19.9,29.93,NE,45,5.0,13.0,27,0.00,,,0.00,Weather View 32 v70,2013-05-28 13:40:00,
2013-05-28 07:45:00,53.0,19.9,29.93,ENE,67,7.0,13.0,27,0.00,,,0.00,Weather View 32 v70,2013-05-28 13:45:00,
2013-05-28 07:50:00,53.0,19.9,29.93,ENE,67,6.0,13.0,27,0.00,,,0.00,Weather View 32 v70,2013-05-28 13:50:00,
2013-05-28 07:55:00,54.0,18.9,29.93,ENE,67,10.0,13.0,25,0.00,,,0.00,Weather View 32 v70,2013-05-28 13:55:00,
2013-05-28 08:00:00,54.0,18.9,29.93,East,90,6.0,13.0,25,0.00,,,0.00,Weather View 32 v70,2013-05-28 14:00:00,
2013-05-28 08:05:00,55.0,18.8,29.93,East,90,13.0,13.0,24,0.00,,,0.00,Weather View 32 v70,2013-05-28 14:05:00,
2013-05-28 08:10:00,56.0,19.6,29.92,ENE,67,11.0,15.0,24,0.00,,,0.00,Weather View 32 v70,2013-05-28 14:10:00,
2013-05-28 08:15:00,56.0,18.7,29.92,ENE,67,10.0,15.0,23,0.00,,,0.00,Weather View 32 v70,2013-05-28 14:15:00,
2013-05-28 08:20:00,57.0,18.5,29.92,East,90,10.0,15.0,22,0.00,,,0.00,Weather View 32 v70,2013-05-28 14:20:00,
2013-05-28 08:25:00,58.0,20.3,29.92,ENE,67,8.0,15.0,23,0.00,,,0.00,Weather View 32 v70,2013-05-28 14:25:00,
2013-05-28 08:30:00,58.0,18.2,29.92,NE,45,7.0,16.0,21,0.00,,,0.00,Weather View 32 v70,2013-05-28 14:30:00,
2013-05-28 08:35:00,59.0,19.0,29.92,East,90,7.0,16.0,21,0.00,,,0.00,Weather View 32 v70,2013-05-28 14:35:00,
2013-05-28 08:40:00,59.0,19.0,29.91,ENE,67,8.0,16.0,21,0.00,,,0.00,Weather View 32 v70,2013-05-28 14:40:00,
2013-05-28 08:45:00,60.0,19.9,29.91,East,90,10.0,16.0,21,0.00,,,0.00,Weather View 32 v70,2013-05-28 14:45:00,
2013-05-28 08:50:00,61.0,19.6,29.91,East,90,9.0,16.0,20,0.00,,,0.00,Weather View 32 v70,2013-05-28 14:50:00,
2013-05-28 08:55:00,61.0,18.4,29.91,SE,135,8.0,16.0,19,0.00,,,0.00,Weather View 32 v70,2013-05-28 14:55:00,
2013-05-28 09:00:00,62.0,19.2,29.90,East,90,0.0,16.0,19,0.00,,,0.00,Weather View 32 v70,2013-05-28 15:00:00,
2013-05-28 09:05:00,63.0,20.0,29.90,East,90,7.0,16.0,19,0.00,,,0.00,Weather View 32 v70,2013-05-28 15:05:00,
2013-05-28 09:10:00,64.0,20.8,29.90,East,90,4.0,16.0,19,0.00,,,0.00,Weather View 32 v70,2013-05-28 15:10:00,
2013-05-28 09:15:00,65.0,20.4,29.90,East,90,6.0,16.0,18,0.00,,,0.00,Weather View 32 v70,2013-05-28 15:15:00,
2013-05-28 09:20:00,65.0,19.0,29.90,SE,135,8.0,16.0,17,0.00,,,0.00,Weather View 32 v70,2013-05-28 15:20:00,
2013-05-28 09:25:00,66.0,18.4,29.90,East,90,5.0,16.0,16,0.00,,,0.00,Weather View 32 v70,2013-05-28 15:25:00,
2013-05-28 09:30:00,66.0,18.4,29.90,East,90,6.0,14.0,16,0.00,,,0.00,Weather View 32 v70,2013-05-28 15:30:00,
2013-05-28 09:35:00,66.0,18.4,29.90,ENE,67,2.0,14.0,16,0.00,,,0.00,Weather View 32 v70,2013-05-28 15:35:00,
2013-05-28 09:40:00,67.0,19.2,29.89,SSE,157,5.0,14.0,16,0.00,,,0.00,Weather View 32 v70,2013-05-28 15:40:00,
2013-05-28 09:45:00,67.0,19.2,29.89,SSE,157,7.0,11.0,16,0.00,,,0.00,Weather View 32 v70,2013-05-28 15:45:00,
2013-05-28 09:50:00,67.0,19.2,29.89,SE,135,3.0,11.0,16,0.00,,,0.00,Weather View 32 v70,2013-05-28 15:50:00,
2013-05-28 09:55:00,68.0,20.0,29.89,South,180,9.0,11.0,16,0.00,,,0.00,Weather View 32 v70,2013-05-28 15:55:00,
2013-05-28 10:00:00,68.0,20.0,29.88,ESE,112,4.0,11.0,16,0.00,,,0.00,Weather View 32 v70,2013-05-28 16:00:00,
2013-05-28 10:05:00,69.0,19.3,29.88,South,180,7.0,11.0,15,0.00,,,0.00,Weather View 32 v70,2013-05-28 16:05:00,
2013-05-28 10:10:00,69.0,19.3,29.88,East,90,4.0,11.0,15,0.00,,,0.00,Weather View 32 v70,2013-05-28 16:10:00,
2013-05-28 10:15:00,70.0,18.5,29.88,East,90,6.0,11.0,14,0.00,,,0.00,Weather View 32 v70,2013-05-28 16:15:00,
2013-05-28 10:20:00,70.0,18.5,29.88,NE,45,5.0,11.0,14,0.00,,,0.00,Weather View 32 v70,2013-05-28 16:20:00,
2013-05-28 10:25:00,70.0,20.1,29.88,ENE,67,6.0,11.0,15,0.00,,,0.00,Weather View 32 v70,2013-05-28 16:25:00,
2013-05-28 10:30:00,70.0,20.1,29.87,East,90,4.0,10.0,15,0.00,,,0.00,Weather View 32 v70,2013-05-28 16:30:00,
2013-05-28 10:35:00,71.0,17.6,29.87,East,90,7.0,10.0,13,0.00,,,0.00,Weather View 32 v70,2013-05-28 16:35:00,
2013-05-28 10:40:00,71.0,17.6,29.86,SSE,157,1.0,10.0,13,0.00,,,0.00,Weather View 32 v70,2013-05-28 16:40:00,
2013-05-28 10:45:00,72.0,18.4,29.86,SE,135,1.0,10.0,13,0.00,,,0.00,Weather View 32 v70,2013-05-28 16:45:00,
2013-05-28 10:50:00,72.0,18.4,29.86,South,180,0.0,10.0,13,0.00,,,0.00,Weather View 32 v70,2013-05-28 16:50:00,
2013-05-28 10:55:00,73.0,17.3,29.86,SE,135,1.0,10.0,12,0.00,,,0.00,Weather View 32 v70,2013-05-28 16:55:00,
2013-05-28 11:00:00,73.0,17.3,29.85,ENE,67,5.0,10.0,12,0.00,,,0.00,Weather View 32 v70,2013-05-28 17:00:00,
2013-05-28 11:05:00,73.0,19.1,29.85,SE,135,6.0,10.0,13,0.00,,,0.00,Weather View 32 v70,2013-05-28 17:05:00,
2013-05-28 11:10:00,73.0,17.3,29.85,East,90,4.0,10.0,12,0.00,,,0.00,Weather View 32 v70,2013-05-28 17:10:00,
2013-05-28 11:15:00,73.0,19.1,29.85,South,180,3.0,10.0,13,0.00,,,0.00,Weather View 32 v70,2013-05-28 17:15:00,
2013-05-28 11:20:00,74.0,18.1,29.84,ENE,67,8.0,10.0,12,0.00,,,0.00,Weather View 32 v70,2013-05-28 17:20:00,
2013-05-28 11:25:00,74.0,18.1,29.84,East,90,8.0,11.0,12,0.00,,,0.00,Weather View 32 v70,2013-05-28 17:25:00,
2013-05-28 11:30:00,74.0,18.1,29.84,ESE,112,3.0,11.0,12,0.00,,,0.00,Weather View 32 v70,2013-05-28 17:30:00,
2013-05-28 11:35:00,74.0,19.9,29.84,SW,225,3.0,11.0,13,0.00,,,0.00,Weather View 32 v70,2013-05-28 17:35:00,
2013-05-28 11:40:00,75.0,16.8,29.83,West,270,2.0,11.0,11,0.00,,,0.00,Weather View 32 v70,2013-05-28 17:40:00,
2013-05-28 11:45:00,75.0,16.8,29.83,SW,225,5.0,11.0,11,0.00,,,0.00,Weather View 32 v70,2013-05-28 17:45:00,
2013-05-28 11:50:00,76.0,17.6,29.83,West,270,3.0,11.0,11,0.00,,,0.00,Weather View 32 v70,2013-05-28 17:50:00,
2013-05-28 11:55:00,77.0,16.1,29.83,South,180,7.0,11.0,10,0.00,,,0.00,Weather View 32 v70,2013-05-28 17:55:00,
2013-05-28 12:00:00,78.0,14.5,29.82,SSW,202,5.0,11.0,9,0.00,,,0.00,Weather View 32 v70,2013-05-28 18:00:00,
2013-05-28 12:05:00,78.0,14.5,29.82,South,180,3.0,11.0,9,0.00,,,0.00,Weather View 32 v70,2013-05-28 18:05:00,
2013-05-28 12:10:00,78.0,14.5,29.82,East,90,0.0,11.0,9,0.00,,,0.00,Weather View 32 v70,2013-05-28 18:10:00,
2013-05-28 12:15:00,78.0,16.9,29.82,NE,45,5.0,11.0,10,0.00,,,0.00,Weather View 32 v70,2013-05-28 18:15:00,
2013-05-28 12:20:00,78.0,19.1,29.81,NE,45,4.0,11.0,11,0.00,,,0.00,Weather View 32 v70,2013-05-28 18:20:00,
2013-05-28 12:25:00,76.0,19.6,29.81,North,360,7.0,9.0,12,0.00,,,0.00,Weather View 32 v70,2013-05-28 18:25:00,
2013-05-28 12:30:00,74.0,18.1,29.82,North,360,4.0,9.0,12,0.00,,,0.00,Weather View 32 v70,2013-05-28 18:30:00,
2013-05-28 12:35:00,75.0,18.8,29.82,East,90,4.0,9.0,12,0.00,,,0.00,Weather View 32 v70,2013-05-28 18:35:00,
2013-05-28 12:40:00,75.0,16.8,29.81,North,360,5.0,9.0,11,0.00,,,0.00,Weather View 32 v70,2013-05-28 18:40:00,
2013-05-28 12:45:00,76.0,17.6,29.81,East,90,4.0,9.0,11,0.00,,,0.00,Weather View 32 v70,2013-05-28 18:45:00,
2013-05-28 12:50:00,76.0,17.6,29.81,East,90,4.0,9.0,11,0.00,,,0.00,Weather View 32 v70,2013-05-28 18:50:00,
2013-05-28 12:55:00,76.0,19.6,29.81,West,270,3.0,9.0,12,0.00,,,0.00,Weather View 32 v70,2013-05-28 18:55:00,
2013-05-28 13:00:00,77.0,25.7,29.80,SW,225,5.0,9.0,15,0.00,,,0.00,Weather View 32 v70,2013-05-28 19:00:00,
2013-05-28 13:05:00,77.0,22.3,29.80,West,270,5.0,10.0,13,0.00,,,0.00,Weather View 32 v70,2013-05-28 19:05:00,
2013-05-28 13:10:00,76.0,17.6,29.81,SW,225,6.0,10.0,11,0.00,,,0.00,Weather View 32 v70,2013-05-28 19:10:00,
2013-05-28 13:15:00,76.0,21.5,29.81,South,180,7.0,11.0,13,0.00,,,0.00,Weather View 32 v70,2013-05-28 19:15:00,
2013-05-28 13:20:00,76.0,21.5,29.80,West,270,6.0,11.0,13,0.00,,,0.00,Weather View 32 v70,2013-05-28 19:20:00,
2013-05-28 13:25:00,76.0,23.3,29.80,WSW,247,2.0,11.0,14,0.00,,,0.00,Weather View 32 v70,2013-05-28 19:25:00,
2013-05-28 13:29:00,76.0,24.9,29.80,SW,225,10.0,11.0,15,0.00,,,0.00,Weather View 32 v70,2013-05-28 19:29:00,
2013-05-28 13:34:00,76.0,17.6,29.80,SW,225,5.0,12.0,11,0.00,,,0.00,Weather View 32 v70,2013-05-28 19:34:00,
2013-05-28 13:39:00,76.0,17.6,29.80,NW,315,3.0,12.0,11,0.00,,,0.00,Weather View 32 v70,2013-05-28 19:39:00,
2013-05-28 13:44:00,76.0,21.5,29.80,WNW,292,5.0,12.0,13,0.00,,,0.00,Weather View 32 v70,2013-05-28 19:44:00,
2013-05-28 13:49:00,77.0,22.3,29.79,NW,315,10.0,12.0,13,0.00,,,0.00,Weather View 32 v70,2013-05-28 19:49:00,
2013-05-28 13:55:00,76.0,17.6,29.79,NW,315,0.0,13.0,11,0.00,,,0.00,Weather View 32 v70,2013-05-28 19:55:00,
2013-05-28 14:00:00,77.0,18.4,29.78,SSW,202,4.0,13.0,11,0.00,,,0.00,Weather View 32 v70,2013-05-28 20:00:00,
2013-05-28 14:05:00,77.0,13.7,29.78,East,90,10.0,13.0,9,0.00,,,0.00,Weather View 32 v70,2013-05-28 20:05:00,
2013-05-28 14:10:00,76.0,17.6,29.78,South,180,12.0,22.0,11,0.00,,,0.00,Weather View 32 v70,2013-05-28 20:10:00,
2013-05-28 14:15:00,77.0,16.1,29.78,SE,135,7.0,22.0,10,0.00,,,0.00,Weather View 32 v70,2013-05-28 20:15:00,
2013-05-28 14:20:00,77.0,16.1,29.77,West,270,8.0,22.0,10,0.00,,,0.00,Weather View 32 v70,2013-05-28 20:20:00,
2013-05-28 14:25:00,78.0,19.1,29.77,South,180,10.0,22.0,11,0.00,,,0.00,Weather View 32 v70,2013-05-28 20:25:00,
2013-05-28 14:30:00,78.0,11.8,29.77,SSW,202,5.0,22.0,8,0.00,,,0.00,Weather View 32 v70,2013-05-28 20:30:00,
2013-05-28 14:35:00,77.0,11.1,29.77,South,180,10.0,22.0,8,0.00,,,0.00,Weather View 32 v70,2013-05-28 20:35:00,
2013-05-28 14:40:00,76.0,13.0,29.77,South,180,9.0,22.0,9,0.00,,,0.00,Weather View 32 v70,2013-05-28 20:40:00,
2013-05-28 14:45:00,76.0,13.0,29.77,South,180,5.0,22.0,9,0.00,,,0.00,Weather View 32 v70,2013-05-28 20:45:00,
2013-05-28 14:50:00,76.0,13.0,29.76,South,180,7.0,22.0,9,0.00,,,0.00,Weather View 32 v70,2013-05-28 20:50:00,
2013-05-28 14:55:00,76.0,13.0,29.76,SSE,157,8.0,22.0,9,0.00,,,0.00,Weather View 32 v70,2013-05-28 20:55:00,
2013-05-28 15:00:00,76.0,15.4,29.76,WSW,247,6.0,26.0,10,0.00,,,0.00,Weather View 32 v70,2013-05-28 21:00:00,
2013-05-28 15:05:00,77.0,13.7,29.76,SW,225,9.0,26.0,9,0.00,,,0.00,Weather View 32 v70,2013-05-28 21:05:00,
2013-05-28 15:10:00,77.0,11.1,29.76,South,180,10.0,26.0,8,0.00,,,0.00,Weather View 32 v70,2013-05-28 21:10:00,
2013-05-28 15:15:00,77.0,11.1,29.76,South,180,8.0,26.0,8,0.00,,,0.00,Weather View 32 v70,2013-05-28 21:15:00,
2013-05-28 15:20:00,77.0,13.7,29.75,SW,225,5.0,26.0,9,0.00,,,0.00,Weather View 32 v70,2013-05-28 21:20:00,
2013-05-28 15:25:00,78.0,11.8,29.75,SE,135,12.0,26.0,8,0.00,,,0.00,Weather View 32 v70,2013-05-28 21:25:00,
2013-05-28 15:30:00,77.0,11.1,29.75,South,180,6.0,26.0,8,0.00,,,0.00,Weather View 32 v70,2013-05-28 21:30:00,
2013-05-28 15:35:00,78.0,11.8,29.75,South,180,6.0,26.0,8,0.00,,,0.00,Weather View 32 v70,2013-05-28 21:35:00,
2013-05-28 15:40:00,78.0,11.8,29.74,SSE,157,8.0,26.0,8,0.00,,,0.00,Weather View 32 v70,2013-05-28 21:40:00,
2013-05-28 15:45:00,77.0,11.1,29.74,SE,135,7.0,26.0,8,0.00,,,0.00,Weather View 32 v70,2013-05-28 21:45:00,
2013-05-28 15:50:00,77.0,11.1,29.74,South,180,6.0,26.0,8,0.00,,,0.00,Weather View 32 v70,2013-05-28 21:50:00,
2013-05-28 15:55:00,77.0,11.1,29.74,South,180,9.0,26.0,8,0.00,,,0.00,Weather View 32 v70,2013-05-28 21:55:00,
2013-05-28 16:00:00,78.0,11.8,29.74,SW,225,15.0,22.0,8,0.00,,,0.00,Weather View 32 v70,2013-05-28 22:00:00,
2013-05-28 16:05:00,78.0,11.8,29.74,West,270,9.0,22.0,8,0.00,,,0.00,Weather View 32 v70,2013-05-28 22:05:00,
2013-05-28 16:09:00,79.0,12.5,29.73,SSW,202,11.0,22.0,8,0.00,,,0.00,Weather View 32 v70,2013-05-28 22:09:00,
2013-05-28 16:14:00,79.0,15.2,29.73,West,270,6.0,22.0,9,0.00,,,0.00,Weather View 32 v70,2013-05-28 22:14:00,
2013-05-28 16:19:00,79.0,12.5,29.72,South,180,10.0,22.0,8,0.00,,,0.00,Weather View 32 v70,2013-05-28 22:19:00,
2013-05-28 16:24:00,79.0,12.5,29.72,West,270,15.0,21.0,8,0.00,,,0.00,Weather View 32 v70,2013-05-28 22:24:00,
2013-05-28 16:29:00,79.0,9.5,29.72,SW,225,8.0,20.0,7,0.00,,,0.00,Weather View 32 v70,2013-05-28 22:29:00,
2013-05-28 16:34:00,79.0,6.1,29.72,SW,225,14.0,21.0,6,0.00,,,0.00,Weather View 32 v70,2013-05-28 22:34:00,
2013-05-28 16:39:00,79.0,6.1,29.73,SW,225,21.0,21.0,6,0.00,,,0.00,Weather View 32 v70,2013-05-28 22:39:00,
2013-05-28 16:44:00,78.0,5.4,29.73,SW,225,20.0,25.0,6,0.00,,,0.00,Weather View 32 v70,2013-05-28 22:44:00,
2013-05-28 16:49:00,78.0,8.8,29.73,SW,225,11.0,25.0,7,0.00,,,0.00,Weather View 32 v70,2013-05-28 22:49:00,
2013-05-28 16:54:00,79.0,12.5,29.73,SW,225,8.0,25.0,8,0.00,,,0.00,Weather View 32 v70,2013-05-28 22:54:00,
2013-05-28 16:59:00,79.0,15.2,29.72,West,270,8.0,25.0,9,0.00,,,0.00,Weather View 32 v70,2013-05-28 22:59:00,
2013-05-28 17:04:00,79.0,9.5,29.72,WSW,247,6.0,25.0,7,0.00,,,0.00,Weather View 32 v70,2013-05-28 23:04:00,
2013-05-28 17:09:00,79.0,12.5,29.73,West,270,6.0,26.0,8,0.00,,,0.00,Weather View 32 v70,2013-05-28 23:09:00,
2013-05-28 17:14:00,78.0,11.8,29.73,SW,225,7.0,26.0,8,0.00,,,0.00,Weather View 32 v70,2013-05-28 23:14:00,
2013-05-28 17:19:00,78.0,11.8,29.73,SW,225,10.0,26.0,8,0.00,,,0.00,Weather View 32 v70,2013-05-28 23:19:00,
2013-05-28 17:24:00,78.0,11.8,29.73,SW,225,17.0,26.0,8,0.00,,,0.00,Weather View 32 v70,2013-05-28 23:24:00,
2013-05-28 17:29:00,77.0,11.1,29.72,NW,315,11.0,26.0,8,0.00,,,0.00,Weather View 32 v70,2013-05-28 23:29:00,
2013-05-28 17:34:00,77.0,8.1,29.72,SSW,202,6.0,26.0,7,0.00,,,0.00,Weather View 32 v70,2013-05-28 23:34:00,
2013-05-28 17:39:00,76.0,10.3,29.73,SSW,202,10.0,26.0,8,0.00,,,0.00,Weather View 32 v70,2013-05-28 23:39:00,
2013-05-28 17:44:00,76.0,10.3,29.73,SW,225,10.0,26.0,8,0.00,,,0.00,Weather View 32 v70,2013-05-28 23:44:00,
2013-05-28 17:49:00,75.0,9.6,29.74,WSW,247,14.0,26.0,8,0.00,,,0.00,Weather View 32 v70,2013-05-28 23:49:00,
2013-05-28 17:54:00,75.0,12.2,29.74,West,270,5.0,26.0,9,0.00,,,0.00,Weather View 32 v70,2013-05-28 23:54:00,
2013-05-28 17:59:00,75.0,9.6,29.73,SW,225,7.0,26.0,8,0.00,,,0.00,Weather View 32 v70,2013-05-28 23:59:00,
2013-05-28 18:04:00,76.0,10.3,29.73,SW,225,12.0,26.0,8,0.00,,,0.00,Weather View 32 v70,2013-05-29 00:04:00,
2013-05-28 18:09:00,76.0,13.0,29.73,SW,225,7.0,25.0,9,0.00,,,0.00,Weather View 32 v70,2013-05-29 00:09:00,
2013-05-28 18:14:00,76.0,13.0,29.73,West,270,10.0,25.0,9,0.00,,,0.00,Weather View 32 v70,2013-05-29 00:14:00,
2013-05-28 18:19:00,77.0,13.7,29.72,SW,225,9.0,25.0,9,0.00,,,0.00,Weather View 32 v70,2013-05-29 00:19:00,
2013-05-28 18:24:00,77.0,13.7,29.72,West,270,10.0,25.0,9,0.00,,,0.00,Weather View 32 v70,2013-05-29 00:24:00,
2013-05-28 18:29:00,77.0,13.7,29.72,SW,225,6.0,24.0,9,0.00,,,0.00,Weather View 32 v70,2013-05-29 00:29:00,
2013-05-28 18:34:00,77.0,13.7,29.72,WSW,247,9.0,24.0,9,0.00,,,0.00,Weather View 32 v70,2013-05-29 00:34:00,
2013-05-28 18:39:00,77.0,13.7,29.72,SW,225,5.0,24.0,9,0.00,,,0.00,Weather View 32 v70,2013-05-29 00:39:00,
2013-05-28 18:44:00,77.0,13.7,29.72,SW,225,12.0,24.0,9,0.00,,,0.00,Weather View 32 v70,2013-05-29 00:44:00,
2013-05-28 18:49:00,76.0,15.4,29.72,WSW,247,5.0,24.0,10,0.00,,,0.00,Weather View 32 v70,2013-05-29 00:49:00,
2013-05-28 18:54:00,76.0,17.6,29.72,WSW,247,3.0,24.0,11,0.00,,,0.00,Weather View 32 v70,2013-05-29 00:54:00,
2013-05-28 18:59:00,75.0,16.8,29.72,SW,225,9.0,24.0,11,0.00,,,0.00,Weather View 32 v70,2013-05-29 00:59:00,
2013-05-28 19:04:00,75.0,12.2,29.72,SW,225,6.0,24.0,9,0.00,,,0.00,Weather View 32 v70,2013-05-29 01:04:00,
2013-05-28 19:09:00,75.0,12.2,29.72,SW,225,6.0,17.0,9,0.00,,,0.00,Weather View 32 v70,2013-05-29 01:09:00,
2013-05-28 19:14:00,75.0,12.2,29.72,SSW,202,8.0,17.0,9,0.00,,,0.00,Weather View 32 v70,2013-05-29 01:14:00,
2013-05-28 19:19:00,75.0,16.8,29.72,West,270,3.0,16.0,11,0.00,,,0.00,Weather View 32 v70,2013-05-29 01:19:00,
2013-05-28 19:24:00,75.0,14.6,29.72,WSW,247,1.0,16.0,10,0.00,,,0.00,Weather View 32 v70,2013-05-29 01:24:00,
2013-05-28 19:29:00,74.0,16.0,29.72,West,270,3.0,16.0,11,0.00,,,0.00,Weather View 32 v70,2013-05-29 01:29:00,
2013-05-28 19:34:00,74.0,13.9,29.72,West,270,8.0,16.0,10,0.00,,,0.00,Weather View 32 v70,2013-05-29 01:34:00,
2013-05-28 19:39:00,74.0,13.9,29.72,West,270,4.0,16.0,10,0.00,,,0.00,Weather View 32 v70,2013-05-29 01:39:00,
2013-05-28 19:44:00,73.0,15.3,29.72,NW,315,12.0,16.0,11,0.00,,,0.00,Weather View 32 v70,2013-05-29 01:44:00,
2013-05-28 19:49:00,73.0,17.3,29.73,West,270,6.0,14.0,12,0.00,,,0.00,Weather View 32 v70,2013-05-29 01:49:00,
2013-05-28 19:54:00,73.0,15.3,29.73,West,270,4.0,14.0,11,0.00,,,0.00,Weather View 32 v70,2013-05-29 01:54:00,
2013-05-28 19:59:00,72.0,14.5,29.73,West,270,6.0,14.0,11,0.00,,,0.00,Weather View 32 v70,2013-05-29 01:59:00,
2013-05-28 20:04:00,72.0,18.4,29.73,West,270,3.0,14.0,13,0.00,,,0.00,Weather View 32 v70,2013-05-29 02:04:00,
2013-05-28 20:09:00,71.0,15.7,29.74,WNW,292,3.0,14.0,12,0.00,,,0.00,Weather View 32 v70,2013-05-29 02:09:00,
2013-05-28 20:14:00,71.0,17.6,29.74,West,270,7.0,14.0,13,0.00,,,0.00,Weather View 32 v70,2013-05-29 02:14:00,
2013-05-28 20:19:00,70.0,16.8,29.74,West,270,4.0,14.0,13,0.00,,,0.00,Weather View 32 v70,2013-05-29 02:19:00,
2013-05-28 20:24:00,70.0,16.8,29.74,NW,315,3.0,14.0,13,0.00,,,0.00,Weather View 32 v70,2013-05-29 02:24:00,
2013-05-28 20:29:00,70.0,18.5,29.74,WNW,292,0.0,14.0,14,0.00,,,0.00,Weather View 32 v70,2013-05-29 02:29:00,
2013-05-28 20:34:00,69.0,17.7,29.74,WNW,292,2.0,14.0,14,0.00,,,0.00,Weather View 32 v70,2013-05-29 02:34:00,
2013-05-28 20:39:00,69.0,17.7,29.74,WNW,292,2.0,14.0,14,0.00,,,0.00,Weather View 32 v70,2013-05-29 02:39:00,
2013-05-28 20:44:00,68.0,18.5,29.74,WNW,292,1.0,14.0,15,0.00,,,0.00,Weather View 32 v70,2013-05-29 02:44:00,
2013-05-28 20:49:00,68.0,20.0,29.74,WSW,247,4.0,12.0,16,0.00,,,0.00,Weather View 32 v70,2013-05-29 02:49:00,
2013-05-28 20:54:00,67.0,19.2,29.74,WSW,247,0.0,12.0,16,0.00,,,0.00,Weather View 32 v70,2013-05-29 02:54:00,
2013-05-28 20:59:00,67.0,19.2,29.75,WSW,247,3.0,10.0,16,0.00,,,0.00,Weather View 32 v70,2013-05-29 02:59:00,
2013-05-28 21:04:00,67.0,20.7,29.75,SW,225,4.0,10.0,17,0.00,,,0.00,Weather View 32 v70,2013-05-29 03:04:00,
2013-05-28 21:09:00,66.0,19.8,29.75,SW,225,3.0,10.0,17,0.00,,,0.00,Weather View 32 v70,2013-05-29 03:09:00,
2013-05-28 21:14:00,66.0,21.2,29.75,SW,225,8.0,10.0,18,0.00,,,0.00,Weather View 32 v70,2013-05-29 03:14:00,
2013-05-28 21:19:00,66.0,21.2,29.76,West,270,7.0,11.0,18,0.00,,,0.00,Weather View 32 v70,2013-05-29 03:19:00,
2013-05-28 21:24:00,66.0,23.7,29.76,West,270,11.0,19.0,20,0.00,,,0.00,Weather View 32 v70,2013-05-29 03:24:00,
2013-05-28 21:29:00,66.0,24.9,29.76,West,270,10.0,19.0,21,0.00,,,0.00,Weather View 32 v70,2013-05-29 03:29:00,
2013-05-28 21:34:00,66.0,26.0,29.76,West,270,10.0,19.0,22,0.00,,,0.00,Weather View 32 v70,2013-05-29 03:34:00,
2013-05-28 21:39:00,66.0,26.0,29.77,WNW,292,4.0,19.0,22,0.00,,,0.00,Weather View 32 v70,2013-05-29 03:39:00,
2013-05-28 21:44:00,66.0,27.1,29.77,NW,315,6.0,25.0,23,0.00,,,0.00,Weather View 32 v70,2013-05-29 03:44:00,
2013-05-28 21:49:00,67.0,28.9,29.76,West,270,14.0,28.0,24,0.00,,,0.00,Weather View 32 v70,2013-05-29 03:49:00,
2013-05-28 21:54:00,66.0,28.1,29.76,NW,315,15.0,28.0,24,0.00,,,0.00,Weather View 32 v70,2013-05-29 03:54:00,
2013-05-28 21:59:00,66.0,29.1,29.78,NW,315,8.0,28.0,25,0.00,,,0.00,Weather View 32 v70,2013-05-29 03:59:00,
2013-05-28 22:01:00,66.0,29.1,29.78,West,270,18.0,28.0,25,0.00,,,0.00,Weather View 32 v70,2013-05-29 04:01:00,
2013-05-28 22:06:00,66.0,29.1,29.78,NNW,337,11.0,28.0,25,0.00,,,0.00,Weather View 32 v70,2013-05-29 04:06:00,
2013-05-28 22:11:00,66.0,30.1,29.78,NW,315,6.0,28.0,26,0.00,,,0.00,Weather View 32 v70,2013-05-29 04:11:00,
2013-05-28 22:16:00,66.0,30.1,29.78,WNW,292,6.0,28.0,26,0.00,,,0.00,Weather View 32 v70,2013-05-29 04:16:00,
2013-05-28 22:21:00,66.0,31.0,29.78,NW,315,4.0,28.0,27,0.00,,,0.00,Weather View 32 v70,2013-05-29 04:21:00,
2013-05-28 22:26:00,65.0,30.1,29.78,NW,315,4.0,28.0,27,0.00,,,0.00,Weather View 32 v70,2013-05-29 04:26:00,
2013-05-28 22:33:00,65.0,29.2,29.79,West,270,7.0,28.0,26,0.00,,,0.00,Weather View 32 v70,2013-05-29 04:33:00,
2013-05-28 22:38:00,65.0,30.1,29.79,West,270,10.0,28.0,27,0.00,,,0.00,Weather View 32 v70,2013-05-29 04:38:00,
2013-05-28 22:43:00,65.0,31.0,29.80,SW,225,6.0,28.0,28,0.00,,,0.00,Weather View 32 v70,2013-05-29 04:43:00,
2013-05-28 22:48:00,64.0,31.0,29.80,West,270,10.0,28.0,29,0.00,,,0.00,Weather View 32 v70,2013-05-29 04:48:00,
2013-05-28 22:53:00,64.0,31.0,29.80,West,270,12.0,22.0,29,0.00,,,0.00,Weather View 32 v70,2013-05-29 04:53:00,
2013-05-28 22:58:00,64.0,31.0,29.80,West,270,11.0,22.0,29,0.00,,,0.00,Weather View 32 v70,2013-05-29 04:58:00,
2013-05-28 23:03:00,64.0,31.0,29.80,West,270,16.0,21.0,29,0.00,,,0.00,Weather View 32 v70,2013-05-29 05:03:00,
2013-05-28 23:08:00,63.0,31.0,29.80,WSW,247,11.0,21.0,30,0.00,,,0.00,Weather View 32 v70,2013-05-29 05:08:00,
2013-05-28 23:13:00,63.0,31.0,29.81,SW,225,10.0,21.0,30,0.00,,,0.00,Weather View 32 v70,2013-05-29 05:13:00,
2013-05-28 23:18:00,63.0,32.6,29.81,North,360,5.0,24.0,32,0.00,,,0.00,Weather View 32 v70,2013-05-29 05:18:00,
2013-05-28 23:23:00,63.0,34.1,29.81,SW,225,15.0,24.0,34,0.00,,,0.00,Weather View 32 v70,2013-05-29 05:23:00,
2013-05-28 23:28:00,63.0,34.9,29.81,WSW,247,16.0,24.0,35,0.00,,,0.00,Weather View 32 v70,2013-05-29 05:28:00,
2013-05-28 23:33:00,63.0,36.3,29.81,SW,225,9.0,24.0,37,0.00,,,0.00,Weather View 32 v70,2013-05-29 05:33:00,
2013-05-28 23:38:00,62.0,34.7,29.81,West,270,8.0,26.0,36,0.00,,,0.00,Weather View 32 v70,2013-05-29 05:38:00,
2013-05-28 23:43:00,62.0,36.0,29.82,West,270,10.0,26.0,38,0.00,,,0.00,Weather View 32 v70,2013-05-29 05:43:00,
2013-05-28 23:48:00,62.0,36.7,29.82,West,270,10.0,26.0,39,0.00,,,0.00,Weather View 32 v70,2013-05-29 05:48:00,
2013-05-28 23:53:00,62.0,36.0,29.82,NW,315,10.0,26.0,38,0.00,,,0.00,Weather View 32 v70,2013-05-29 05:53:00,
2013-05-28 23:58:00,61.0,33.8,29.82,NW,315,3.0,26.0,36,0.00,,,0.00,Weather View 32 v70,2013-05-29 05:58:00,